Flag for Brazil Weather past 2 weeks in Santa María, Rio Grande do Sul, Brazil

Now
68 °F

Partly cloudy.


Feels Like: 68 °F
Forecast: 61 / 77 °F
Wind: 9 mph from Southwest

Location: Porto Alegre Aero-Porto

Current Time: Dec 22, 2014 at 7:13:40 AM

Latest Report: Dec 22, 2014 at 6:00 AM


Visibility: N/A

Pressure: 29.83 "Hg

Humidity: 83%

Dew point: 63 °F

Location of Santa MaríaLocation

Historic Weather in Santa María — Graph

°F

Santa María temperature yesterday

Maximum temperature yesterday: 75 °F (at 12:00 PM)
Minimum temperature yesterday: 70 °F (at 1:00 AM)
Average temperature yesterday: 72 °F

Past Weeks' High & Low Weather Summary

 TemperatureHumidityPressure
High97 °F (Dec 8, 3:00 PM)100% (Dec 10, 7:00 AM)30.07 "Hg (Dec 10, 7:00 AM)
Low37 °F (Dec 11, 12:00 AM)31% (Dec 19, 3:00 PM)29.47 "Hg (Dec 20, 7:00 PM)
Average76 °F76%29.83 "Hg
* Reported Dec 7 6:00 AM — Dec 22 6:00 AM, Santa María, Weather by CustomWeather, © 2014

Note: Actual official high and low records may vary slightly from our data, if they occured in-between our weather recording intervals... More about our weather records

Advertising

Santa María weather history for previous 24 hours

 ConditionsComfort  
Time TempWeatherWind HumidityBarometerVisibility
6:00 AM
Dec 22
68 °FPartly cloudy.9 mph83%29.83 "HgN/A
5:00 AM70 °FMostly cloudy.10 mph83%29.80 "HgN/A
4:00 AM70 °FMostly cloudy.10 mph83%29.77 "HgN/A
3:00 AM70 °FMostly cloudy.10 mph88%29.74 "HgN/A
2:00 AM72 °FMostly cloudy.3 mph88%29.71 "HgN/A
1:00 AM72 °FMostly cloudy.6 mph88%29.74 "Hg4 mi
12:00 AM72 °FFog.6 mph94%29.71 "Hg3 mi
11:00 PM
Dec 21
72 °FOvercast.7 mph94%29.68 "HgN/A
10:00 PM72 °FMostly cloudy.6 mph94%29.65 "HgN/A
9:00 PM72 °FLight rain. Mostly cloudy.3 mph94%29.59 "Hg6 mi
8:00 PM72 °FDrizzle. Fog.7 mph94%29.59 "Hg2 mi
7:00 PM72 °FDrizzle. Fog.8 mph100%29.53 "Hg2 mi
6:00 PM72 °FDrizzle. Broken clouds.6 mph100%29.47 "Hg4 mi
5:00 PM72 °FLight rain. Fog.6 mph100%29.50 "Hg3 mi
4:00 PM72 °FThunderstorms. Mostly cloudy.6 mph100%29.47 "Hg2 mi
3:00 PM75 °FLight rain. Fog.7 mph94%29.53 "Hg2 mi
2:00 PM73 °FLight rain. Fog.5 mph100%N/A2 mi
1:00 PM73 °FRain. Mostly cloudy.3 mph100%29.56 "Hg2 mi
12:00 PM75 °FLight rain. Broken clouds.8 mph94%29.56 "HgN/A
11:00 AM73 °FBroken clouds.12 mph94%29.56 "HgN/A
10:00 AM73 °FBroken clouds.14 mph94%29.56 "HgN/A
9:00 AM72 °FBroken clouds.8 mph94%29.62 "HgN/A
8:00 AM72 °FLight rain. Cloudy.13 mph94%29.59 "Hg5 mi
7:00 AM72 °FLight rain. Mostly cloudy.7 mph94%29.62 "Hg5 mi
Weather by CustomWeather, © 2014

See weather overviewHow to use our weather pages